Retour au catalogue

TAIJING-2 04

ActifScienceSSO
NORAD 58820·PAYLOAD·🇨🇳 China

Lancé Jan 23, 2024 depuis Jiuquan Satellite Launch Center

Loading…

Prochains Passages (prochaines 24 heures)

TLE

FraisSource: Space-Track

Époque: Sep 14, 2026, 22:25 UTC

1 58820U 24016A   26257.93403968  .00043038  00000-0  51785-3 0  9997
2 58820  97.4472 357.2952 0005832  85.2978 274.8945 15.60702980148042

Suivez TAIJING-2 04 en temps réel avec AllMySat

Download on the App Store